• In Uzbekistan
  • List of Countries
  • For 7 days
  • Water Temperature
  • Satellite Maps
  • Weather Map
  • Weather Widgets
  • user-avatar
    Login

    Hourly Weather Balapur

    Today, 19 September, Wednesday

    Time Temperature Precipitation Wind Pressure Humidity
    00:00 +28°C° 0 mm 1 mps 732 mmHg 65%
    01:00 +28°C° 0 mm 1 mps 732 mmHg 66%
    02:00 +27°C° 0 mm 2 mps 732 mmHg 67%
    03:00 +27°C° 0 mm 2 mps 732 mmHg 68%
    04:00 +27°C° 0 mm 2 mps 732 mmHg 70%
    05:00 +26°C° 0 mm 3 mps 732 mmHg 72%
    06:00 +27°C° 0 mm 3 mps 733 mmHg 70%
    07:00 +28°C° 0 mm 4 mps 733 mmHg 68%
    08:00 +29°C° 0 mm 4 mps 733 mmHg 66%
    09:00 +32°C° 0.1 mm 4 mps 733 mmHg 61%
    10:00 +34°C° 0.1 mm 5 mps 733 mmHg 56%
    11:00 +35°C° 0.1 mm 5 mps 733 mmHg 51%
    12:00 +36°C° 0.1 mm 5 mps 732 mmHg 48%
    13:00 +36°C° 0.1 mm 4 mps 732 mmHg 45%
    14:00 +36°C° 0.1 mm 4 mps 731 mmHg 43%
    15:00 +36°C° 0 mm 4 mps 731 mmHg 46%
    16:00 +35°C° 0 mm 4 mps 731 mmHg 48%
    17:00 +35°C° 0 mm 3 mps 730 mmHg 51%
    18:00 +33°C° 0 mm 3 mps 731 mmHg 54%
    19:00 +31°C° 0 mm 2 mps 731 mmHg 57%
    20:00 +30°C° 0 mm 2 mps 732 mmHg 60%
    21:00 +29°C° 0 mm 2 mps 732 mmHg 61%
    22:00 +29°C° 0 mm 2 mps 732 mmHg 62%
    23:00 +29°C° 0 mm 1 mps 732 mmHg 63%

    Tomorrow, 20 September, Thursday

    Time Temperature Precipitation Wind Pressure Humidity
    00:00 +28°C° 0 mm 2 mps 731 mmHg 64%
    01:00 +28°C° 0 mm 2 mps 731 mmHg 64%
    02:00 +28°C° 0 mm 2 mps 731 mmHg 65%
    03:00 +27°C° 0 mm 2 mps 731 mmHg 66%
    04:00 +27°C° 0 mm 2 mps 731 mmHg 67%
    05:00 +27°C° 0 mm 2 mps 731 mmHg 68%
    06:00 +28°C° 0 mm 3 mps 731 mmHg 66%
    07:00 +29°C° 0 mm 3 mps 732 mmHg 63%
    08:00 +30°C° 0 mm 3 mps 732 mmHg 60%
    09:00 +33°C° 0 mm 4 mps 732 mmHg 54%
    10:00 +34°C° 0 mm 4 mps 732 mmHg 47%
    11:00 +36°C° 0 mm 5 mps 732 mmHg 41%
    12:00 +37°C° 0 mm 5 mps 731 mmHg 39%
    13:00 +37°C° 0 mm 5 mps 731 mmHg 37%
    14:00 +39°C° 0 mm 5 mps 730 mmHg 36%
    15:00 +37°C° 0 mm 5 mps 730 mmHg 40%
    16:00 +36°C° 0 mm 4 mps 730 mmHg 44%
    17:00 +35°C° 0 mm 4 mps 730 mmHg 48%
    18:00 +34°C° 0 mm 3 mps 730 mmHg 52%
    19:00 +31°C° 0 mm 3 mps 730 mmHg 55%
    20:00 +30°C° 0 mm 3 mps 731 mmHg 58%
    21:00 +30°C° 0 mm 2 mps 731 mmHg 59%
    22:00 +29°C° 0 mm 2 mps 731 mmHg 60%
    23:00 +29°C° 0 mm 2 mps 731 mmHg 61%

    Day after tomorrow, 21 September, Friday

    Time Temperature Precipitation Wind Pressure Humidity
    00:00 +29°C° 0 mm 2 mps 730 mmHg 61%
    01:00 +28°C° 0 mm 2 mps 730 mmHg 62%
    02:00 +28°C° 0 mm 2 mps 729 mmHg 62%
    03:00 +27°C° 0 mm 2 mps 729 mmHg 64%
    04:00 +27°C° 0 mm 3 mps 729 mmHg 66%
    05:00 +27°C° 0 mm 3 mps 729 mmHg 68%
    06:00 +27°C° 0 mm 3 mps 730 mmHg 67%
    07:00 +28°C° 0 mm 3 mps 730 mmHg 66%
    08:00 +29°C° 0 mm 3 mps 731 mmHg 65%
    09:00 +30°C° 0 mm 4 mps 731 mmHg 59%
    10:00 +33°C° 0 mm 4 mps 731 mmHg 53%
    11:00 +35°C° 0 mm 4 mps 731 mmHg 47%
    12:00 +35°C° 0 mm 4 mps 730 mmHg 46%
    13:00 +35°C° 0 mm 5 mps 729 mmHg 45%
    14:00 +36°C° 0 mm 5 mps 729 mmHg 44%
    15:00 +35°C° 0 mm 5 mps 728 mmHg 50%
    16:00 +34°C° 0 mm 5 mps 728 mmHg 55%
    17:00 +32°C° 0 mm 4 mps 728 mmHg 60%
    18:00 +32°C° 0.1 mm 4 mps 728 mmHg 62%
    19:00 +30°C° 0.1 mm 4 mps 729 mmHg 64%
    20:00 +30°C° 0.1 mm 3 mps 729 mmHg 65%
    21:00 +29°C° 0.7 mm 4 mps 729 mmHg 71%
    22:00 +28°C° 0.7 mm 4 mps 729 mmHg 76%
    23:00 +28°C° 0.7 mm 4 mps 729 mmHg 82%

    22 September, Saturday

    Time Temperature Precipitation Wind Pressure Humidity
    00:00 +27°C° 1.8 mm 5 mps 728 mmHg 85%
    01:00 +27°C° 1.8 mm 5 mps 728 mmHg 87%
    02:00 +27°C° 1.8 mm 5 mps 727 mmHg 90%
    03:00 +27°C° 2.1 mm 5 mps 727 mmHg 90%
    04:00 +27°C° 2.1 mm 5 mps 727 mmHg 91%
    05:00 +27°C° 2.1 mm 5 mps 727 mmHg 92%
    06:00 +27°C° 2.6 mm 5 mps 728 mmHg 91%
    07:00 +27°C° 2.6 mm 4 mps 728 mmHg 90%
    08:00 +27°C° 2.6 mm 4 mps 729 mmHg 89%
    09:00 +28°C° 1 mm 4 mps 729 mmHg 86%
    10:00 +28°C° 1 mm 3 mps 729 mmHg 84%
    11:00 +29°C° 1 mm 3 mps 729 mmHg 81%
    12:00 +29°C° 0.8 mm 3 mps 728 mmHg 81%
    13:00 +29°C° 0.8 mm 3 mps 728 mmHg 81%
    14:00 +29°C° 0.8 mm 3 mps 727 mmHg 81%
    15:00 +28°C° 1.1 mm 3 mps 727 mmHg 82%
    16:00 +28°C° 1.1 mm 3 mps 727 mmHg 84%
    17:00 +27°C° 1.1 mm 3 mps 728 mmHg 85%
    18:00 +27°C° 0.5 mm 3 mps 728 mmHg 87%
    19:00 +27°C° 0.5 mm 3 mps 729 mmHg 88%
    20:00 +26°C° 0.5 mm 3 mps 729 mmHg 90%
    21:00 +26°C° 0.3 mm 3 mps 729 mmHg 90%
    22:00 +26°C° 0.3 mm 3 mps 729 mmHg 91%
    23:00 +26°C° 0.3 mm 3 mps 730 mmHg 91%

    23 September, Sunday

    Time Temperature Precipitation Wind Pressure Humidity
    00:00 +26°C° 0.1 mm 3 mps 729 mmHg 91%
    01:00 +26°C° 0.1 mm 4 mps 729 mmHg 91%
    02:00 +25°C° 0.1 mm 4 mps 729 mmHg 90%
    03:00 +25°C° 0.1 mm 4 mps 729 mmHg 90%
    04:00 +25°C° 0.1 mm 4 mps 729 mmHg 90%
    05:00 +25°C° 0.1 mm 4 mps 730 mmHg 89%
    06:00 +25°C° 0.2 mm 4 mps 730 mmHg 88%
    07:00 +25°C° 0.2 mm 4 mps 731 mmHg 87%
    08:00 +25°C° 0.2 mm 4 mps 732 mmHg 87%
    09:00 +26°C° 0.2 mm 4 mps 732 mmHg 86%
    10:00 +26°C° 0.2 mm 4 mps 732 mmHg 86%
    11:00 +26°C° 0.2 mm 4 mps 732 mmHg 86%
    12:00 +26°C° 0.1 mm 5 mps 731 mmHg 84%
    13:00 +27°C° 0.1 mm 5 mps 731 mmHg 83%
    14:00 +27°C° 0.1 mm 5 mps 730 mmHg 81%
    15:00 +28°C° 0.1 mm 5 mps 730 mmHg 80%
    16:00 +28°C° 0.1 mm 4 mps 730 mmHg 79%
    17:00 +29°C° 0.1 mm 4 mps 730 mmHg 77%
    18:00 +28°C° 0.1 mm 4 mps 731 mmHg 80%
    19:00 +27°C° 0.1 mm 3 mps 731 mmHg 82%
    20:00 +26°C° 0.1 mm 3 mps 732 mmHg 84%
    21:00 +26°C° 0 mm 3 mps 732 mmHg 83%
    22:00 +26°C° 0 mm 3 mps 732 mmHg 83%
    23:00 +26°C° 0 mm 3 mps 732 mmHg 82%

    24 September, Monday

    Time Temperature Precipitation Wind Pressure Humidity
    00:00 +26°C° 0 mm 3 mps 732 mmHg 82%
    01:00 +26°C° 0 mm 2 mps 732 mmHg 82%
    02:00 +26°C° 0 mm 2 mps 731 mmHg 82%
    03:00 +26°C° 0 mm 2 mps 732 mmHg 82%
    04:00 +25°C° 0 mm 2 mps 732 mmHg 83%
    05:00 +25°C° 0 mm 2 mps 732 mmHg 84%
    06:00 +26°C° 0 mm 2 mps 733 mmHg 83%
    07:00 +26°C° 0 mm 2 mps 733 mmHg 82%
    08:00 +26°C° 0 mm 2 mps 734 mmHg 81%
    09:00 +28°C° 0 mm 2 mps 734 mmHg 74%
    10:00 +29°C° 0 mm 2 mps 734 mmHg 67%
    11:00 +31°C° 0 mm 2 mps 734 mmHg 60%
    12:00 +32°C° 0 mm 2 mps 733 mmHg 58%
    13:00 +32°C° 0 mm 2 mps 732 mmHg 55%
    14:00 +34°C° 0 mm 2 mps 731 mmHg 53%
    15:00 +34°C° 0 mm 2 mps 731 mmHg 55%
    16:00 +32°C° 0 mm 2 mps 731 mmHg 57%
    17:00 +32°C° 0 mm 1 mps 731 mmHg 58%
    18:00 +31°C° 0 mm 1 mps 731 mmHg 61%
    19:00 +29°C° 0 mm 1 mps 732 mmHg 63%
    20:00 +28°C° 0 mm 1 mps 732 mmHg 65%
    21:00 +28°C° 0 mm 1 mps 733 mmHg 67%
    22:00 +27°C° 0 mm 1 mps 733 mmHg 70%
    23:00 +27°C° 0 mm 2 mps 733 mmHg 73%
    Show more